This is the latest recevied weather packets stored in our database for station/object DL9GJ-6. If no packets are shown the sender has not sent any weather packets the latest 10 day(s).
| Time | Temp. | Humidity | Pressure | Rain* | Wind** | Luminosity | Snow |
|---|---|---|---|---|---|---|---|
| 1777816932 | 24.44° C | 37% | 1011.6 hPa | 0 mm | - | 368 W/m² | - |
| 1777816585 | 24.44° C | 38% | 1011.8 hPa | 0 mm | - | 584 W/m² | - |
| 1777816572 | 24.44° C | 38% | 1011.8 hPa | 0 mm | - | 584 W/m² | - |
| 1777816224 | 24.44° C | 39% | 1011.7 hPa | 0 mm | - | 584 W/m² | - |
| 1777815864 | 23.89° C | 40% | 1011.8 hPa | 0 mm | - | 457 W/m² | - |
| 1777815504 | 23.89° C | 41% | 1011.9 hPa | 0 mm | - | 426 W/m² | - |
| 1777815491 | 23.89° C | 41% | 1011.9 hPa | 0 mm | - | 426 W/m² | - |
| 1777815144 | 23.33° C | 42% | 1012.1 hPa | 0 mm | - | 364 W/m² | - |
| 1777815132 | 23.33° C | 42% | 1012.1 hPa | 0 mm | - | 364 W/m² | - |
| 1777814784 | 23.33° C | 42% | 1012.1 hPa | 0 mm | - | 351 W/m² | - |
| 1777814424 | 23.89° C | 37% | 1012.1 hPa | 0 mm | - | 315 W/m² | - |
| 1777814411 | 23.89° C | 37% | 1012.1 hPa | 0 mm | - | 315 W/m² | - |
| 1777814064 | 23.89° C | 38% | 1012.2 hPa | 0 mm | - | 347 W/m² | - |
| 1777813704 | 23.89° C | 37% | 1012.3 hPa | 0 mm | - | 342 W/m² | - |
| 1777813344 | 23.89° C | 38% | 1012.3 hPa | 0 mm | - | 340 W/m² | - |
| 1777813334 | 23.89° C | 38% | 1012.3 hPa | 0 mm | - | 340 W/m² | - |
| 1777812983 | 23.89° C | 36% | 1012.3 hPa | 0 mm | - | 397 W/m² | - |
| 1777812970 | 23.89° C | 36% | 1012.3 hPa | 0 mm | - | 397 W/m² | - |
| 1777812624 | 23.89° C | 35% | 1012.3 hPa | 0 mm | - | 344 W/m² | - |
| 1777812611 | 23.89° C | 35% | 1012.3 hPa | 0 mm | - | 344 W/m² | - |
| 1777812263 | 24.44° C | 35% | 1012.4 hPa | 0 mm | - | 487 W/m² | - |
| 1777811904 | 24.44° C | 34% | 1012.3 hPa | 0 mm | - | 623 W/m² | - |
| 1777811893 | 24.44° C | 34% | 1012.3 hPa | 0 mm | - | 623 W/m² | - |
| 1777811545 | 24.44° C | 36% | 1012.4 hPa | 0 mm | - | 650 W/m² | - |
| 1777811531 | 24.44° C | 36% | 1012.4 hPa | 0 mm | - | 650 W/m² | - |
* Rain latest hour (hover to see other rain measurements)
** Current wind speed in m/s (hover to see current wind gust speed)